Tracking 32954 objects as of 18-Jan-2026
HD Live streaming from Space Station
objects crossing your sky now

THOR ABLESTAR DEB

Track THOR ABLESTAR DEB now!
10-day predictions


NORAD ID: 13513
Int'l Code: 1961-015KW
Perigee: 862.9 km
Apogee: 1,012.8 km
Inclination: 65.7 °
Period: 103.6 minutes
Semi major axis: 7308 km
RCS: 0.0483 m2 (small)
Launch date: June 29, 1961
Source: United States (US)
Launch site: AIR FORCE EASTERN TEST RANGE (AFETR)

Note: This is SATELLITE DEBRIS
Your satellite tracking list
Your tracking list is empty




NASA's NSSDC Master Catalog

Two Line Element Set (TLE):
1 13513U 61015KW  26017.62585188  .00000804  00000-0  69727-3 0  9991
2 13513  65.6759 216.4296 0102610 283.4493 138.0161 13.89405653298245
Source of the keplerian elements: AFSPC